Flag for Spain Weather past 2 weeks in Sevilla, Spain

Now
66 °F

Clear.


Feels Like: 66 °F
Forecast: 66 / 99 °F
Wind: 2 mph from Northeast

Location: Sevilla / San Pablo

Current Time: Aug 31, 2014 at 7:27:59 AM

Latest Report: Aug 31, 2014 at 7:00 AM


Visibility: 10 mi

Pressure: 29.98 "Hg

Humidity: 60%

Dew point: 52 °F

Location of SevillaLocation

Historic Weather in Sevilla — Graph

°F

Sevilla temperature yesterday

Maximum temperature yesterday: 91 °F (at 4:30 PM)
Minimum temperature yesterday: 68 °F (at 6:30 AM)
Average temperature yesterday: 79 °F

Past Weeks' High & Low Weather Summary

 TemperatureHumidityPressure
High102 °F (Aug 27, 5:00 PM)94% (Aug 19, 6:30 AM)30.07 "Hg (Aug 19, 6:30 AM)
Low63 °F (Aug 21, 7:30 AM)13% (Aug 16, 8:00 PM)29.80 "Hg (Aug 17, 6:00 PM)
Average81 °F45%29.96 "Hg
* Reported Aug 16 6:00 AM — Aug 31 6:30 AM, Sevilla, Weather by CustomWeather, © 2014

Note: Actual official high and low records may vary slightly from our data, if they occured in-between our weather recording intervals... More about our weather records

Advertising

Sevilla weather history for previous 24 hours

 ConditionsComfort  
Time TempWeatherWind HumidityBarometerVisibility
6:30 AM
Aug 31
68 °FClear.No wind56%29.98 "Hg10 mi
6:00 AM66 °FClear.3 mph64%29.98 "Hg10 mi
5:30 AM68 °FClear.No wind60%29.98 "Hg10 mi
5:00 AM66 °FClear.2 mph60%29.98 "Hg10 mi
4:30 AM68 °FClear.No wind60%29.98 "Hg10 mi
4:00 AM70 °FClear.No wind57%29.98 "Hg10 mi
3:30 AM70 °FClear.No wind53%29.98 "Hg10 mi
1:00 AM72 °FPassing clouds.7 mph50%29.98 "HgN/A
12:30 AM73 °FClear.9 mph47%29.98 "Hg10 mi
12:00 AM75 °FClear.1 mph41%29.98 "Hg10 mi
11:30 PM
Aug 30
75 °FClear.1 mph44%29.98 "Hg10 mi
11:00 PM77 °FPassing clouds.5 mph36%29.98 "HgN/A
10:30 PM79 °FClear.3 mph37%29.95 "Hg10 mi
10:00 PM81 °FClear.8 mph34%29.95 "Hg10 mi
9:30 PM82 °FPassing clouds.8 mph30%29.95 "HgN/A
9:00 PM84 °FSunny.9 mph27%29.95 "Hg10 mi
8:30 PM86 °FSunny.10 mph22%29.92 "Hg10 mi
8:00 PM88 °FSunny.12 mph21%29.92 "Hg10 mi
7:30 PM90 °FPassing clouds.10 mph21%29.92 "HgN/A
7:00 PM90 °FPassing clouds.14 mph22%29.92 "HgN/A
6:30 PM90 °FPassing clouds.15 mph20%29.92 "HgN/A
6:00 PM90 °FPassing clouds.15 mph17%29.92 "HgN/A
5:30 PM91 °FPassing clouds.14 mph15%29.92 "HgN/A
5:00 PM90 °FPassing clouds.16 mph16%29.95 "HgN/A
4:30 PM91 °FPassing clouds.14 mph15%29.95 "HgN/A
4:00 PM90 °FPassing clouds.15 mph18%29.95 "HgN/A
3:30 PM90 °FPassing clouds.14 mph24%29.95 "HgN/A
3:00 PM90 °FPassing clouds.14 mph24%29.95 "HgN/A
2:30 PM88 °FPassing clouds.10 mph27%29.98 "HgN/A
2:00 PM88 °FPassing clouds.12 mph27%29.98 "HgN/A
1:30 PM86 °FPassing clouds.10 mph29%29.98 "HgN/A
1:00 PM84 °FPassing clouds.13 mph33%29.98 "HgN/A
12:30 PM82 °FPassing clouds.12 mph37%29.98 "HgN/A
12:00 PM82 °FPassing clouds.8 mph37%29.98 "HgN/A
11:30 AM79 °FPassing clouds.6 mph42%29.98 "HgN/A
11:00 AM79 °FPassing clouds.3 mph42%29.98 "HgN/A
10:30 AM77 °FPassing clouds.5 mph47%29.98 "HgN/A
10:00 AM73 °FSunny.2 mph53%29.98 "Hg10 mi
9:30 AM72 °FPassing clouds.3 mph57%29.98 "HgN/A
9:00 AM70 °FSunny.No wind60%29.95 "Hg10 mi
8:30 AM68 °FClear.No wind64%29.95 "Hg10 mi
8:00 AM68 °FClear.No wind64%29.95 "Hg10 mi
7:30 AM68 °FClear.5 mph64%29.95 "Hg10 mi
7:00 AM68 °FClear.1 mph60%29.92 "Hg10 mi
Weather by CustomWeather, © 2014

See weather overviewHow to use our weather pages